Location: Gwatt
(46.7204°N, 7.6223°E)
Time: 14:16:08
(UTC+00:00)

SR - All Passes

Search period start: 25 January 2021 00:00
Search period end: 04 February 2021 00:00
Orbit: 575 x 880 km, 66.7° (Epoch: 25 January)

Date Brightness Start Highest point End Pass type
(mag) Time Alt. Az. Time Alt. Az. Time Alt. Az.
25 Jan - 02:56:09 10° SSE 03:00:00 25° ESE 03:04:09 10° NE visible
25 Jan - 04:36:57 10° SW 04:41:41 52° NW 04:46:54 10° NNE visible
25 Jan - 06:22:08 10° WNW 06:25:07 15° NNW 06:28:13 10° N visible
25 Jan - 09:51:18 10° N 09:54:28 15° NNE 09:57:43 10° ENE daylight
25 Jan - 11:32:29 10° NNW 11:38:01 45° NE 11:43:41 10° ESE daylight
25 Jan - 13:14:45 10° NW 13:20:07 39° WSW 13:25:33 10° S daylight
26 Jan - 02:08:47 10° SE 02:10:45 12° ESE 02:12:47 10° ENE visible
26 Jan - 03:47:01 10° SSW 03:51:50 87° ESE 03:57:10 10° NE visible
26 Jan - 05:30:50 10° W 05:34:42 21° NW 05:38:49 10° NNE visible
26 Jan - 09:02:05 10° N 09:03:53 11° NNE 09:05:42 10° NE daylight
26 Jan - 10:42:56 10° NNW 10:47:54 29° NE 10:53:01 10° E daylight
26 Jan - 12:24:43 10° NW 12:30:30 69° WSW 12:36:23 10° SSE daylight
26 Jan - 14:09:28 10° W 14:11:39 12° WSW 14:13:50 10° WSW daylight
27 Jan - 02:57:39 10° S 03:02:12 45° ESE 03:07:11 10° NE visible
27 Jan - 04:40:00 10° WSW 04:44:28 33° NW 04:49:19 10° NNE visible
27 Jan - 06:26:26 10° NW 06:28:21 12° NNW 06:30:19 10° N visible
27 Jan - 09:53:27 10° NNW 09:57:37 20° NNE 10:01:53 10° E daylight
27 Jan - 11:34:55 10° NNW 11:40:43 71° NE 11:46:39 10° SE daylight
27 Jan - 13:17:52 10° WNW 13:22:22 23° WSW 13:26:53 10° SSW daylight
28 Jan - 02:09:00 10° SSE 02:12:47 23° ESE 02:16:51 10° ENE visible
28 Jan - 03:49:38 10° SW 03:54:25 55° NW 03:59:42 10° NNE visible
28 Jan - 05:34:41 10° WNW 05:37:48 16° NNW 05:41:04 10° N visible
28 Jan - 09:04:05 10° N 09:07:09 15° NNE 09:10:18 10° ENE daylight
28 Jan - 10:45:15 10° NNW 10:50:46 43° NE 10:56:24 10° ESE daylight
28 Jan - 12:27:28 10° NW 12:32:55 41° WSW 12:38:25 10° S daylight
29 Jan - 01:21:55 10° ESE 01:23:34 12° E 01:25:14 10° E night (unlit)
29 Jan - 02:59:45 10° SSW 03:04:35 82° ESE 03:09:56 10° NE visible
29 Jan - 04:43:25 10° W 04:47:24 22° NW 04:51:39 10° NNE visible
29 Jan - 08:14:52 10° N 08:16:34 11° NNE 08:18:16 10° NNE daylight
29 Jan - 09:55:42 10° NNW 10:00:37 28° NE 10:05:40 10° E daylight
29 Jan - 11:37:27 10° NW 11:43:17 73° WSW 11:49:11 10° SSE daylight
29 Jan - 13:21:54 10° WNW 13:24:28 13° WSW 13:27:02 10° SW daylight
30 Jan - 02:10:27 10° S 02:14:58 43° ESE 02:19:56 10° NE visible
30 Jan - 03:52:38 10° WSW 03:57:10 34° NW 04:02:07 10° NNE visible
30 Jan - 05:38:55 10° NW 05:41:02 12° NNW 05:43:12 10° N visible
30 Jan - 09:06:14 10° NNW 09:10:19 19° NNE 09:14:31 10° ENE daylight
30 Jan - 10:47:40 10° NNW 10:53:29 68° NE 10:59:23 10° SE daylight
30 Jan - 12:30:32 10° NW 12:35:10 25° WSW 12:39:49 10° SSW daylight
31 Jan - 01:21:53 10° SSE 01:25:34 22° ESE 01:29:31 10° ENE visible
31 Jan - 03:02:19 10° SW 03:07:09 59° NW 03:12:29 10° NNE visible
31 Jan - 04:47:13 10° WNW 04:50:29 16° NNW 04:53:54 10° N visible
31 Jan - 08:16:51 10° N 08:19:51 14° NNE 08:22:53 10° NE daylight
31 Jan - 09:58:02 10° NNW 10:03:30 41° NE 10:09:06 10° ESE daylight
31 Jan - 11:40:11 10° NW 11:45:42 44° WSW 11:51:16 10° S daylight
01 Feb - 00:35:10 10° ESE 00:36:21 11° E 00:37:35 10° E night (unlit)
01 Feb - 02:12:29 10° SSW 02:17:20 77° ESE 02:22:41 10° NE visible
01 Feb - 03:56:01 10° W 04:00:05 24° NW 04:04:28 10° NNE visible
01 Feb - 05:43:51 10° NNW 05:44:21 10° N 05:44:51 10° N visible
01 Feb - 07:27:38 10° N 07:29:13 11° NNE 07:30:50 10° NNE daylight
01 Feb - 09:08:28 10° NNW 09:13:21 27° NE 09:18:20 10° E daylight
01 Feb - 10:50:12 10° NW 10:56:03 77° WSW 11:01:58 10° SSE daylight
01 Feb - 12:34:23 10° WNW 12:37:17 14° WSW 12:40:11 10° SW daylight
02 Feb - 01:23:14 10° S 01:27:45 40° ESE 01:32:41 10° NE visible
02 Feb - 03:05:16 10° WSW 03:09:53 36° NW 03:14:55 10° NNE visible
02 Feb - 04:51:23 10° NW 04:53:42 13° NNW 04:56:04 10° N visible
02 Feb - 08:19:00 10° NNW 08:23:01 19° NNE 08:27:07 10° ENE daylight
02 Feb - 10:00:26 10° NNW 10:06:15 64° NE 10:12:08 10° SE daylight
02 Feb - 11:43:12 10° NW 11:47:59 26° WSW 11:52:45 10° SSW daylight
03 Feb - 00:34:46 10° SSE 00:38:22 21° ESE 00:42:12 10° ENE night (unlit)
03 Feb - 02:15:01 10° SW 02:19:53 62° NW 02:25:16 10° NNE visible
03 Feb - 03:59:46 10° WNW 04:03:10 17° NNW 04:06:44 10° NNE visible
03 Feb - 07:29:37 10° N 07:32:31 14° NNE 07:35:29 10° NE daylight
03 Feb - 09:10:48 10° NNW 09:16:15 40° NE 09:21:47 10° ESE daylight
03 Feb - 10:52:55 10° NW 10:58:30 46° WSW 11:04:06 10° S daylight
03 Feb - 23:48:52 10° ESE 23:49:10 10° E 23:49:29 10° E night (unlit)
